Regional Weather Roundup
Issued by NWS

Home | Current Version | Previous Version | Graphics & Text | Print | Product List | Glossary On
Versions: 1 2 3 4 5 6 7 8 9 10 11 12 13 14 15 16 17 18 19 20 21 22 23 24 25 26 27 28 29 30 31 32 33 34 35 36 37 38 39 40 41 42 43 44 45 46 47 48 49 50
000
ASUS43 KOAX 161510
RWRNE

WEATHER ROUNDUP FOR NEBRASKA
NATIONAL WEATHER SERVICE OMAHA NE
900 AM CST SAT DEC 16 2017

NOTES: SATELLITE DATA IS BEING USED TO AUGMENT CLOUD COVER ABOVE
       12000 FEET.
       "FAIR" INDICATES FEW OR NO CLOUDS BELOW 12,000 FEET WITH NO
       SIGNIFICANT WEATHER AND/OR OBSTRUCTIONS TO VISIBILITY.


NEZ001>004-019>022-054>056-161600-
NEBRASKA PANHANDLE

CITY           SKY/WX    TMP DP  RH WIND       PRES   REMARKS
SCOTTSBLUFF    CLOUDY    38  17  42 NE8       29.84R WCI  32
ALLIANCE       CLOUDY    29  17  61 N9        29.84R WCI  20
CHADRON        CLOUDY    29  20  69 N3        29.90R
GORDON         FAIR      33  24  70 N8        29.87R WCI  26
KIMBALL        CLOUDY    40   8  26 N12       29.82S WCI  33
SIDNEY         CLOUDY    35   8  32 N10       29.82R WCI  27
$$

NEZ057>060-069>072-079>082-161600-
SOUTHWEST NEBRASKA

CITY           SKY/WX    TMP DP  RH WIND       PRES   REMARKS
NORTH PLATTE   CLOUDY    29  23  78 CALM      29.81R
IMPERIAL       CLOUDY    34  15  46 N9        29.79R WCI  27
LEXINGTON      PTCLDY    35  22  60 NW5       29.79R WCI  31
MCCOOK         CLOUDY    28  15  58 W3        29.77R
OGALLALA       CLOUDY    25  17  72 CALM      29.82R
$$

NEZ005>010-023>029-035>040-094-161600-
NORTH CENTRAL NEBRASKA

CITY           SKY/WX    TMP DP  RH WIND       PRES   REMARKS
VALENTINE      CLOUDY    36  26  67 N10       29.86R WCI  28
AINSWORTH      CLOUDY    35  27  73 NW8       29.84R WCI  29
BROKEN BOW     CLOUDY    37  24  59 N8        29.81R WCI  31
O`NEILL        CLOUDY    34  28  77 NW6       29.83R WCI  29
ORD            CLOUDY    33  26  75 N9        29.81R WCI  25
THEDFORD       CLOUDY    36  25  64 NW6       29.84R WCI  31
$$

NEZ041-046>049-061>064-073>077-083>087-161600-
SOUTH CENTRAL NEBRASKA

CITY           SKY/WX    TMP DP  RH WIND       PRES   REMARKS
GRAND ISLAND   PTCLDY    37  25  61 N8        29.79R WCI  31
AURORA         PTCLDY    33  25  74 N7        29.79R WCI  26
HASTINGS       CLOUDY    37  22  54 N8        29.78R WCI  31
HEBRON         CLOUDY    31  23  72 CALM      29.79R
HOLDREGE       PTCLDY    36  21  55 N8        29.77R WCI  30
KEARNEY        CLOUDY    38  22  52 N10       29.78  WCI  31
YORK           CLOUDY    32  25  74 N6        29.79R WCI  26
$$

NEZ011>018-030>034-042>045-161600-
NORTHEAST NEBRASKA

CITY           SKY/WX    TMP DP  RH WIND       PRES   REMARKS
NORFOLK        PTCLDY    32  25  75 W3        29.79R
ALBION         PTCLDY    32  25  75 NW7       29.81R WCI  26
BLAIR          CLOUDY    36  22  58 NW6       29.77S WCI  31
COLUMBUS       PTCLDY    32  25  75 W3        29.81R
FREMONT        CLOUDY    31  23  73 NW6       29.79S WCI  25
TEKAMAH        MOSUNNY   31  21  66 S6        29.81R WCI  25
WAYNE          CLOUDY    31  25  80 CALM      29.81R
$$

NEZ050>053-065>068-078-088>093-161600-
SOUTHEAST NEBRASKA

CITY           SKY/WX    TMP DP  RH WIND       PRES   REMARKS
LINCOLN        CLOUDY    31  23  72 S5        29.81R WCI  26
OMAHA EPPLEY   CLOUDY    33  23  66 SE3       29.80R
BEATRICE       CLOUDY    32  25  75 CALM      29.80S
FALLS CITY     CLOUDY    36  25  64 S3        29.83R
NEBRASKA CITY  CLOUDY    36  26  66 SW5       29.81R WCI  32
PLATTSMOUTH    CLOUDY    36  24  64 S5        29.80R WCI  32
$$

NEZ044-045-051>053-067-161600-
OMAHA AREA

CITY           SKY/WX    TMP DP  RH WIND       PRES   REMARKS
OMAHA EPPLEY   CLOUDY    33  23  66 SE3       29.80R
BLAIR          CLOUDY    36  22  58 NW6       29.77S WCI  31
FREMONT        CLOUDY    31  23  73 NW6       29.79S WCI  25
MILLARD        CLOUDY    32  24  72 CALM      29.80S
OFFUTT AFB     CLOUDY    28  22  79 S3        29.80R
PLATTSMOUTH    CLOUDY    36  24  64 S5        29.80R WCI  32
WAHOO          FAIR      31  22  69 CALM      29.79S
$$



USA.gov is the U.S. government's official web portal to all federal, state and local government web resources and services.